• In Kazakhstan
  • List of Countries
  • For 7 days
  • Water Temperature
  • Satellite Maps
  • Weather Map
  • News
  • Weather Widgets
  • user-avatar
    Login

    Hourly Weather Ballalpur

    Today, 23 September, Saturday

    Time Temperature Precipitation Wind Pressure Humidity
    00:00 +26°C° 0 mm 1 mps 741 mmHg 88%
    01:00 +26°C° 0 mm 1 mps 740 mmHg 89%
    02:00 +25°C° 0 mm 1 mps 740 mmHg 89%
    03:00 +25°C° 0 mm 1 mps 740 mmHg 90%
    04:00 +25°C° 0 mm 1 mps 741 mmHg 90%
    05:00 +25°C° 0 mm 1 mps 741 mmHg 91%
    06:00 +26°C° 0 mm 1 mps 741 mmHg 87%
    07:00 +28°C° 0 mm 2 mps 742 mmHg 83%
    08:00 +29°C° 0 mm 2 mps 742 mmHg 79%
    09:00 +30°C° 0 mm 2 mps 742 mmHg 73%
    10:00 +33°C° 0 mm 3 mps 742 mmHg 68%
    11:00 +34°C° 0 mm 3 mps 742 mmHg 62%
    12:00 +35°C° 0 mm 3 mps 742 mmHg 60%
    13:00 +35°C° 0 mm 3 mps 741 mmHg 58%
    14:00 +35°C° 0 mm 3 mps 740 mmHg 56%
    15:00 +35°C° 0 mm 2 mps 740 mmHg 61%
    16:00 +34°C° 0 mm 2 mps 740 mmHg 65%
    17:00 +32°C° 0 mm 1 mps 740 mmHg 69%
    18:00 +31°C° 0 mm 1 mps 740 mmHg 70%
    19:00 +30°C° 0 mm 1 mps 741 mmHg 71%
    20:00 +29°C° 0 mm 1 mps 741 mmHg 72%
    21:00 +29°C° 0 mm 1 mps 741 mmHg 73%
    22:00 +28°C° 0 mm 1 mps 742 mmHg 73%
    23:00 +28°C° 0 mm 1 mps 742 mmHg 74%

    Tomorrow, 24 September, Sunday

    Time Temperature Precipitation Wind Pressure Humidity
    00:00 +28°C° 0 mm 1 mps 741 mmHg 75%
    01:00 +28°C° 0 mm 1 mps 741 mmHg 76%
    02:00 +27°C° 0 mm 1 mps 741 mmHg 77%
    03:00 +27°C° 0 mm 1 mps 741 mmHg 79%
    04:00 +27°C° 0 mm 1 mps 741 mmHg 81%
    05:00 +27°C° 0 mm 1 mps 741 mmHg 82%
    06:00 +28°C° 0 mm 2 mps 741 mmHg 81%
    07:00 +29°C° 0 mm 2 mps 742 mmHg 79%
    08:00 +30°C° 0 mm 2 mps 742 mmHg 77%
    09:00 +31°C° 0 mm 2 mps 742 mmHg 72%
    10:00 +34°C° 0 mm 3 mps 742 mmHg 67%
    11:00 +35°C° 0 mm 3 mps 742 mmHg 62%
    12:00 +36°C° 0 mm 3 mps 741 mmHg 59%
    13:00 +36°C° 0 mm 3 mps 740 mmHg 57%
    14:00 +36°C° 0 mm 3 mps 739 mmHg 54%
    15:00 +35°C° 0 mm 2 mps 739 mmHg 59%
    16:00 +35°C° 0 mm 2 mps 739 mmHg 63%
    17:00 +34°C° 0 mm 2 mps 739 mmHg 68%
    18:00 +32°C° 0 mm 2 mps 740 mmHg 69%
    19:00 +31°C° 0 mm 1 mps 740 mmHg 70%
    20:00 +30°C° 0 mm 1 mps 741 mmHg 70%
    21:00 +30°C° 0 mm 1 mps 741 mmHg 71%
    22:00 +29°C° 0 mm 2 mps 741 mmHg 72%
    23:00 +29°C° 0 mm 2 mps 741 mmHg 73%

    Day after tomorrow, 25 September, Monday

    Time Temperature Precipitation Wind Pressure Humidity
    00:00 +29°C° 0 mm 2 mps 740 mmHg 76%
    01:00 +28°C° 0 mm 2 mps 740 mmHg 79%
    02:00 +28°C° 0 mm 2 mps 739 mmHg 81%
    03:00 +28°C° 0 mm 2 mps 739 mmHg 82%
    04:00 +27°C° 0 mm 2 mps 739 mmHg 84%
    05:00 +27°C° 0 mm 2 mps 740 mmHg 85%
    06:00 +28°C° 0 mm 2 mps 740 mmHg 82%
    07:00 +29°C° 0 mm 2 mps 741 mmHg 79%
    08:00 +30°C° 0 mm 3 mps 741 mmHg 76%
    09:00 +33°C° 0 mm 3 mps 741 mmHg 71%
    10:00 +34°C° 0 mm 3 mps 741 mmHg 65%
    11:00 +35°C° 0 mm 3 mps 740 mmHg 59%
    12:00 +36°C° 0 mm 3 mps 740 mmHg 58%
    13:00 +36°C° 0 mm 3 mps 739 mmHg 57%
    14:00 +36°C° 0 mm 2 mps 738 mmHg 56%
    15:00 +35°C° 0 mm 2 mps 738 mmHg 60%
    16:00 +35°C° 0 mm 2 mps 738 mmHg 64%
    17:00 +33°C° 0 mm 1 mps 738 mmHg 68%
    18:00 +32°C° 0 mm 1 mps 739 mmHg 68%
    19:00 +31°C° 0 mm 1 mps 739 mmHg 69%
    20:00 +31°C° 0 mm 1 mps 740 mmHg 69%
    21:00 +30°C° 0.1 mm 2 mps 740 mmHg 72%
    22:00 +29°C° 0.1 mm 2 mps 740 mmHg 74%
    23:00 +29°C° 0.1 mm 2 mps 740 mmHg 77%

    26 September, Tuesday

    Time Temperature Precipitation Wind Pressure Humidity
    00:00 +28°C° 0 mm 2 mps 739 mmHg 78%
    01:00 +28°C° 0 mm 2 mps 739 mmHg 78%
    02:00 +28°C° 0 mm 2 mps 739 mmHg 79%
    03:00 +27°C° 0 mm 2 mps 739 mmHg 80%
    04:00 +27°C° 0 mm 2 mps 739 mmHg 81%
    05:00 +27°C° 0 mm 2 mps 739 mmHg 82%
    06:00 +28°C° 0 mm 2 mps 740 mmHg 79%
    07:00 +29°C° 0 mm 3 mps 740 mmHg 76%
    08:00 +30°C° 0 mm 3 mps 741 mmHg 73%
    09:00 +33°C° 0 mm 3 mps 741 mmHg 68%
    10:00 +34°C° 0 mm 3 mps 740 mmHg 62%
    11:00 +36°C° 0 mm 4 mps 740 mmHg 57%
    12:00 +36°C° 0 mm 4 mps 739 mmHg 54%
    13:00 +37°C° 0 mm 4 mps 739 mmHg 52%
    14:00 +37°C° 0 mm 4 mps 738 mmHg 50%
    15:00 +36°C° 0 mm 3 mps 738 mmHg 55%
    16:00 +35°C° 0 mm 3 mps 738 mmHg 60%
    17:00 +34°C° 0 mm 2 mps 738 mmHg 65%
    18:00 +32°C° 0 mm 2 mps 739 mmHg 65%
    19:00 +31°C° 0 mm 2 mps 739 mmHg 66%
    20:00 +30°C° 0 mm 2 mps 740 mmHg 67%
    21:00 +30°C° 0 mm 2 mps 740 mmHg 69%
    22:00 +29°C° 0 mm 2 mps 740 mmHg 71%
    23:00 +29°C° 0 mm 2 mps 740 mmHg 73%

    27 September, Wednesday

    Time Temperature Precipitation Wind Pressure Humidity
    00:00 +28°C° 0 mm 2 mps 739 mmHg 75%
    01:00 +28°C° 0 mm 2 mps 739 mmHg 77%
    02:00 +28°C° 0 mm 2 mps 739 mmHg 79%
    03:00 +28°C° 0 mm 2 mps 739 mmHg 79%
    04:00 +27°C° 0 mm 2 mps 739 mmHg 79%
    05:00 +27°C° 0 mm 2 mps 739 mmHg 80%
    06:00 +28°C° 0 mm 2 mps 740 mmHg 79%
    07:00 +29°C° 0 mm 2 mps 740 mmHg 77%
    08:00 +29°C° 0 mm 3 mps 741 mmHg 76%
    09:00 +31°C° 0 mm 3 mps 740 mmHg 71%
    10:00 +33°C° 0 mm 3 mps 740 mmHg 65%
    11:00 +35°C° 0 mm 4 mps 740 mmHg 59%
    12:00 +36°C° 0 mm 4 mps 739 mmHg 56%
    13:00 +36°C° 0 mm 4 mps 738 mmHg 53%
    14:00 +37°C° 0 mm 4 mps 738 mmHg 50%
    15:00 +36°C° 0 mm 3 mps 738 mmHg 54%
    16:00 +35°C° 0 mm 3 mps 738 mmHg 59%
    17:00 +34°C° 0 mm 2 mps 738 mmHg 63%
    18:00 +32°C° 0 mm 2 mps 738 mmHg 63%
    19:00 +31°C° 0 mm 2 mps 739 mmHg 64%
    20:00 +30°C° 0 mm 1 mps 740 mmHg 64%
    21:00 +30°C° 0 mm 1 mps 740 mmHg 65%
    22:00 +29°C° 0 mm 1 mps 740 mmHg 67%
    23:00 +29°C° 0 mm 1 mps 740 mmHg 68%

    28 September, Thursday

    Time Temperature Precipitation Wind Pressure Humidity
    00:00 +29°C° 0 mm 1 mps 739 mmHg 69%
    01:00 +28°C° 0 mm 2 mps 738 mmHg 71%
    02:00 +28°C° 0 mm 2 mps 738 mmHg 72%
    03:00 +28°C° 0 mm 2 mps 738 mmHg 74%
    04:00 +27°C° 0 mm 2 mps 738 mmHg 75%
    05:00 +27°C° 0 mm 2 mps 738 mmHg 76%
    06:00 +28°C° 0 mm 2 mps 739 mmHg 73%
    07:00 +29°C° 0 mm 2 mps 740 mmHg 71%
    08:00 +30°C° 0 mm 2 mps 740 mmHg 69%
    09:00 +33°C° 0 mm 3 mps 740 mmHg 63%
    10:00 +35°C° 0 mm 3 mps 740 mmHg 58%
    11:00 +36°C° 0 mm 3 mps 739 mmHg 52%
    12:00 +37°C° 0 mm 4 mps 738 mmHg 51%
    13:00 +37°C° 0 mm 4 mps 738 mmHg 49%
    14:00 +37°C° 0 mm 4 mps 737 mmHg 47%
    15:00 +36°C° 0 mm 3 mps 737 mmHg 52%
    16:00 +35°C° 0 mm 3 mps 737 mmHg 57%
    17:00 +34°C° 0 mm 2 mps 738 mmHg 62%
    18:00 +32°C° 0 mm 2 mps 738 mmHg 63%
    19:00 +31°C° 0 mm 1 mps 739 mmHg 63%
    20:00 +30°C° 0 mm 1 mps 739 mmHg 64%
    21:00 +30°C° 0 mm 1 mps 739 mmHg 65%
    22:00 +29°C° 0 mm 1 mps 739 mmHg 66%
    23:00 +29°C° 0 mm 2 mps 739 mmHg 68%
    Show more